Time,TemperatureF,DewpointF,PressureIn,WindDirection,WindDirectionDegrees,WindSpeedMPH,WindSpeedGustMPH,Humidity,HourlyPrecipIn,Conditions,Clouds,dailyrainin,SoftwareType,DateUTC
2013-08-29 00:12:00,59.0,57.0,29.91,South,185,4.0,6.0,93,0.00,,,0.01,,2013-08-29 07:12:00,
2013-08-29 00:21:00,60.0,58.0,29.90,South,177,5.0,11.0,94,0.00,,,0.01,,2013-08-29 07:21:00,
2013-08-29 00:42:00,61.0,59.0,29.90,SSW,210,6.0,10.0,94,0.00,,,0.01,,2013-08-29 07:42:00,
2013-08-29 00:53:00,60.0,58.0,29.90,SSW,198,6.0,11.0,94,0.00,,,0.01,,2013-08-29 07:53:00,
2013-08-29 01:12:00,61.0,60.0,29.90,South,191,5.0,12.0,95,0.00,,,0.01,,2013-08-29 08:12:00,
2013-08-29 01:22:00,61.0,59.0,29.90,SSW,196,1.0,5.0,94,0.00,,,0.01,,2013-08-29 08:22:00,
2013-08-29 01:42:00,60.0,58.0,29.89,South,190,5.0,8.0,94,0.00,,,0.01,,2013-08-29 08:42:00,
2013-08-29 01:52:00,60.0,58.0,29.89,South,173,0.0,5.0,94,0.00,,,0.01,,2013-08-29 08:52:00,
2013-08-29 02:12:00,62.0,61.0,29.87,East,97,7.0,11.0,95,0.00,,,0.01,,2013-08-29 09:12:00,
2013-08-29 02:21:00,63.0,62.0,29.88,ESE,110,7.0,16.0,95,0.00,,,0.01,,2013-08-29 09:21:00,
2013-08-29 02:43:00,63.0,61.0,29.88,SE,133,4.0,12.0,94,0.00,,,0.01,,2013-08-29 09:43:00,
2013-08-29 02:54:00,63.0,61.0,29.87,SSE,161,1.0,7.0,94,0.00,,,0.01,,2013-08-29 09:54:00,
2013-08-29 03:14:00,62.0,60.0,29.87,SSE,161,0.0,0.0,94,0.00,,,0.01,,2013-08-29 10:14:00,
2013-08-29 03:24:00,62.0,60.0,29.87,South,187,0.0,2.0,94,0.00,,,0.01,,2013-08-29 10:24:00,
2013-08-29 03:53:00,61.0,59.0,29.86,East,89,4.0,5.0,94,0.00,,,0.01,,2013-08-29 10:53:00,
2013-08-29 04:12:00,62.0,60.0,29.86,ESE,105,3.0,9.0,94,0.00,,,0.01,,2013-08-29 11:12:00,
2013-08-29 04:22:00,63.0,61.0,29.86,ESE,108,8.0,15.0,94,0.00,,,0.01,,2013-08-29 11:22:00,
2013-08-29 04:42:00,63.0,61.0,29.86,SE,129,6.0,13.0,94,0.00,,,0.01,,2013-08-29 11:42:00,
2013-08-29 04:52:00,63.0,61.0,29.84,East,93,10.0,14.0,94,0.00,,,0.01,,2013-08-29 11:52:00,
2013-08-29 05:11:00,63.0,61.0,29.85,ESE,111,8.0,18.0,94,0.00,,,0.01,,2013-08-29 12:11:00,
2013-08-29 05:22:00,63.0,61.0,29.85,SE,125,6.0,12.0,94,0.00,,,0.01,,2013-08-29 12:22:00,
2013-08-29 05:42:00,63.0,61.0,29.85,SSE,157,0.0,7.0,93,0.00,,,0.01,,2013-08-29 12:42:00,
2013-08-29 05:52:00,63.0,61.0,29.85,ESE,104,4.0,11.0,94,0.01,,,0.02,,2013-08-29 12:52:00,
2013-08-29 06:12:00,63.0,61.0,29.86,South,189,2.0,7.0,93,0.02,,,0.03,,2013-08-29 13:12:00,
2013-08-29 06:22:00,62.0,60.0,29.86,South,173,4.0,9.0,93,0.04,,,0.05,,2013-08-29 13:22:00,
2013-08-29 06:42:00,63.0,61.0,29.85,SE,141,6.0,15.0,94,0.05,,,0.06,,2013-08-29 13:42:00,
2013-08-29 06:52:00,63.0,61.0,29.86,SE,142,1.0,7.0,94,0.05,,,0.07,,2013-08-29 13:52:00,
2013-08-29 07:11:00,63.0,61.0,29.85,ESE,111,4.0,9.0,94,0.05,,,0.08,,2013-08-29 14:11:00,
2013-08-29 07:21:00,64.0,62.0,29.86,SSE,162,5.0,12.0,94,0.05,,,0.10,,2013-08-29 14:21:00,
2013-08-29 07:42:00,64.0,62.0,29.86,South,175,5.0,10.0,94,0.04,,,0.10,,2013-08-29 14:42:00,
2013-08-29 07:52:00,63.0,61.0,29.88,South,182,6.0,8.0,93,0.03,,,0.10,,2013-08-29 14:52:00,
2013-08-29 08:11:00,63.0,61.0,29.88,SSW,194,9.0,15.0,94,0.03,,,0.11,,2013-08-29 15:11:00,
2013-08-29 08:21:00,63.0,61.0,29.89,South,187,8.0,18.0,94,0.01,,,0.11,,2013-08-29 15:21:00,
2013-08-29 08:43:00,62.0,60.0,29.90,SSW,196,8.0,13.0,93,0.01,,,0.11,,2013-08-29 15:43:00,
2013-08-29 08:53:00,61.0,59.0,29.89,SSW,204,9.0,12.0,94,0.01,,,0.11,,2013-08-29 15:53:00,
2013-08-29 09:13:00,60.0,58.0,29.90,SSW,205,12.0,16.0,93,0.00,,,0.11,,2013-08-29 16:13:00,
2013-08-29 09:24:00,59.0,57.0,29.91,SSW,199,16.0,20.0,94,0.00,,,0.11,,2013-08-29 16:24:00,
2013-08-29 09:43:00,61.0,60.0,29.92,SSW,206,16.0,24.0,95,0.01,,,0.12,,2013-08-29 16:43:00,
2013-08-29 09:53:00,60.0,59.0,29.92,SSW,195,16.0,23.0,95,0.03,,,0.14,,2013-08-29 16:53:00,
2013-08-29 10:13:00,62.0,61.0,29.92,South,178,19.0,27.0,96,0.03,,,0.14,,2013-08-29 17:13:00,
2013-08-29 10:22:00,62.0,60.0,29.93,SSE,154,23.0,36.0,94,0.04,,,0.15,,2013-08-29 17:22:00,
2013-08-29 10:43:00,62.0,61.0,29.93,SSW,200,20.0,34.0,95,0.03,,,0.15,,2013-08-29 17:43:00,
2013-08-29 10:52:00,63.0,62.0,29.92,South,177,15.0,26.0,96,0.01,,,0.15,,2013-08-29 17:52:00,
2013-08-29 11:11:00,63.0,62.0,29.93,South,188,27.0,37.0,95,0.01,,,0.15,,2013-08-29 18:11:00,
2013-08-29 11:21:00,64.0,63.0,29.92,South,172,17.0,30.0,95,0.00,,,0.15,,2013-08-29 18:21:00,
2013-08-29 11:42:00,64.0,62.0,29.93,SSW,196,25.0,43.0,94,0.00,,,0.15,,2013-08-29 18:42:00,
2013-08-29 11:52:00,65.0,63.0,29.94,South,187,20.0,38.0,94,0.01,,,0.16,,2013-08-29 18:52:00,
2013-08-29 12:11:00,64.0,62.0,29.95,SSE,168,22.0,33.0,94,0.02,,,0.17,,2013-08-29 19:11:00,
2013-08-29 12:22:00,64.0,62.0,29.95,SSW,201,18.0,31.0,93,0.03,,,0.18,,2013-08-29 19:22:00,
2013-08-29 12:42:00,63.0,61.0,29.95,SSW,202,18.0,25.0,94,0.03,,,0.18,,2013-08-29 19:42:00,
2013-08-29 12:52:00,63.0,61.0,29.96,SSW,206,20.0,30.0,94,0.03,,,0.19,,2013-08-29 19:52:00,
2013-08-29 13:12:00,61.0,59.0,29.96,South,185,16.0,27.0,94,0.02,,,0.19,,2013-08-29 20:12:00,
2013-08-29 13:21:00,61.0,60.0,29.97,South,188,19.0,22.0,95,0.04,,,0.21,,2013-08-29 20:21:00,
2013-08-29 13:42:00,63.0,62.0,29.97,South,184,27.0,38.0,97,0.03,,,0.21,,2013-08-29 20:42:00,
2013-08-29 13:52:00,63.0,62.0,29.98,South,187,26.0,46.0,96,0.03,,,0.22,,2013-08-29 20:52:00,
2013-08-29 14:11:00,63.0,62.0,29.98,South,186,27.0,42.0,96,0.03,,,0.22,,2013-08-29 21:11:00,
2013-08-29 14:22:00,63.0,62.0,29.99,South,175,28.0,42.0,96,0.01,,,0.22,,2013-08-29 21:22:00,
2013-08-29 14:43:00,63.0,62.0,29.99,South,179,30.0,41.0,95,0.00,,,0.22,,2013-08-29 21:43:00,
2013-08-29 14:54:00,63.0,62.0,30.00,SSW,194,27.0,43.0,95,0.00,,,0.22,,2013-08-29 21:54:00,
2013-08-29 15:14:00,63.0,62.0,30.00,South,179,27.0,42.0,95,0.00,,,0.22,,2013-08-29 22:14:00,
2013-08-29 15:24:00,63.0,62.0,30.00,South,171,28.0,44.0,95,0.00,,,0.22,,2013-08-29 22:24:00,
2013-08-29 15:43:00,63.0,62.0,30.01,South,176,21.0,37.0,95,0.00,,,0.22,,2013-08-29 22:43:00,
2013-08-29 15:53:00,63.0,62.0,30.01,South,177,28.0,41.0,95,0.01,,,0.23,,2013-08-29 22:53:00,
2013-08-29 16:12:00,63.0,62.0,30.01,South,188,27.0,39.0,95,0.02,,,0.24,,2013-08-29 23:12:00,
2013-08-29 16:22:00,63.0,62.0,30.01,South,181,27.0,38.0,95,0.03,,,0.25,,2013-08-29 23:22:00,
2013-08-29 16:53:00,61.0,60.0,30.02,SSW,196,18.0,35.0,95,0.03,,,0.26,,2013-08-29 23:53:00,
2013-08-29 17:12:00,62.0,61.0,30.02,South,188,22.0,31.0,96,0.02,,,0.26,,2013-08-30 00:12:00,
2013-08-29 17:21:00,62.0,61.0,30.02,SSE,167,25.0,34.0,96,0.01,,,0.26,,2013-08-30 00:21:00,
2013-08-29 17:42:00,62.0,61.0,30.02,South,184,24.0,34.0,96,0.02,,,0.27,,2013-08-30 00:42:00,
2013-08-29 17:52:00,62.0,61.0,30.02,South,184,24.0,34.0,96,0.02,,,0.27,,2013-08-30 00:52:00,
2013-08-29 18:12:00,62.0,61.0,30.02,South,180,21.0,28.0,96,0.01,,,0.27,,2013-08-30 01:12:00,
2013-08-29 18:21:00,62.0,61.0,30.03,South,173,20.0,30.0,96,0.01,,,0.27,,2013-08-30 01:21:00,
2013-08-29 18:42:00,62.0,61.0,30.03,South,183,21.0,32.0,96,0.00,,,0.26,,2013-08-30 01:42:00,
2013-08-29 18:52:00,62.0,61.0,30.03,South,189,23.0,32.0,96,0.00,,,0.26,,2013-08-30 01:52:00,
2013-08-29 19:11:00,62.0,61.0,30.03,SSE,159,20.0,28.0,96,0.00,,,0.26,,2013-08-30 02:11:00,
2013-08-29 19:21:00,62.0,61.0,30.03,SSW,206,20.0,29.0,96,0.00,,,0.26,,2013-08-30 02:21:00,
2013-08-29 19:42:00,61.0,60.0,30.04,SSE,163,19.0,28.0,97,0.00,,,0.26,,2013-08-30 02:42:00,
2013-08-29 19:52:00,61.0,60.0,30.04,South,188,19.0,27.0,97,0.00,,,0.26,,2013-08-30 02:52:00,
2013-08-29 20:12:00,61.0,60.0,30.05,South,185,20.0,30.0,97,0.00,,,0.26,,2013-08-30 03:12:00,
2013-08-29 20:22:00,62.0,61.0,30.05,South,189,19.0,28.0,97,0.00,,,0.26,,2013-08-30 03:22:00,
2013-08-29 20:55:00,62.0,61.0,30.05,South,188,18.0,31.0,97,0.00,,,0.26,,2013-08-30 03:55:00,
2013-08-29 21:14:00,62.0,61.0,30.06,South,182,17.0,29.0,97,0.00,,,0.26,,2013-08-30 04:14:00,
2013-08-29 21:24:00,62.0,61.0,30.06,South,191,19.0,27.0,97,0.00,,,0.26,,2013-08-30 04:24:00,
2013-08-29 21:54:00,62.0,61.0,30.07,South,173,17.0,26.0,97,0.00,,,0.26,,2013-08-30 04:54:00,
2013-08-29 22:12:00,62.0,61.0,30.08,SSW,206,18.0,27.0,97,0.00,,,0.26,,2013-08-30 05:12:00,
2013-08-29 22:23:00,62.0,61.0,30.08,South,181,20.0,27.0,97,0.00,,,0.26,,2013-08-30 05:23:00,
2013-08-29 22:42:00,62.0,61.0,30.08,South,178,21.0,30.0,97,0.00,,,0.26,,2013-08-30 05:42:00,
2013-08-29 22:52:00,62.0,61.0,30.08,SSE,159,20.0,28.0,97,0.00,,,0.26,,2013-08-30 05:52:00,
2013-08-29 23:12:00,62.0,61.0,30.08,South,191,20.0,27.0,97,0.01,,,0.27,,2013-08-30 06:12:00,
2013-08-29 23:22:00,62.0,61.0,30.08,SSW,194,16.0,28.0,97,0.02,,,0.28,,2013-08-30 06:22:00,
2013-08-29 23:42:00,63.0,62.0,30.08,South,189,16.0,24.0,97,0.02,,,0.28,,2013-08-30 06:42:00,
2013-08-29 23:53:00,62.0,61.0,30.08,South,175,17.0,26.0,97,0.02,,,0.28,,2013-08-30 06:53:00,